Hourly Weather Acerenza

Today, 7 March, Sunday

Time Temperature Precipitation Wind Pressure Humidity
00:00 +4°C° 0 mm 1 mps 706 mmHg 89%
01:00 +3°C° 0 mm 1 mps 705 mmHg 89%
02:00 +3°C° 0 mm 1 mps 705 mmHg 89%
03:00 +3°C° 0 mm 1 mps 705 mmHg 88%
04:00 +3°C° 0 mm 1 mps 705 mmHg 88%
05:00 +3°C° 0 mm 1 mps 705 mmHg 89%
06:00 +3°C° 0 mm 1 mps 705 mmHg 89%
07:00 +4°C° 0 mm 1 mps 705 mmHg 91%
08:00 +5°C° 0 mm 1 mps 705 mmHg 85%
09:00 +7°C° 0 mm 1 mps 706 mmHg 80%
10:00 +8°C° 0 mm 0 mps 706 mmHg 74%
11:00 +9°C° 0.1 mm 1 mps 706 mmHg 72%
12:00 +10°C° 0.1 mm 1 mps 706 mmHg 71%
13:00 +11°C° 0.1 mm 1 mps 706 mmHg 69%
14:00 +11°C° 0.1 mm 1 mps 705 mmHg 71%
15:00 +10°C° 0.1 mm 1 mps 704 mmHg 74%
16:00 +10°C° 0.1 mm 1 mps 704 mmHg 77%
17:00 +9°C° 0 mm 1 mps 704 mmHg 80%
18:00 +8°C° 0 mm 1 mps 703 mmHg 84%
19:00 +7°C° 0 mm 1 mps 703 mmHg 87%
20:00 +6°C° 0 mm 1 mps 703 mmHg 89%
21:00 +6°C° 0 mm 1 mps 702 mmHg 90%
22:00 +5°C° 0 mm 1 mps 702 mmHg 92%
23:00 +5°C° 0 mm 1 mps 702 mmHg 92%

Tomorrow, 8 March, Monday

Time Temperature Precipitation Wind Pressure Humidity
00:00 +5°C° 0 mm 1 mps 702 mmHg 92%
01:00 +4°C° 0 mm 1 mps 701 mmHg 92%
02:00 +4°C° 0 mm 1 mps 701 mmHg 91%
03:00 +4°C° 0 mm 1 mps 700 mmHg 91%
04:00 +4°C° 0 mm 1 mps 700 mmHg 91%
05:00 +4°C° 0 mm 1 mps 699 mmHg 90%
06:00 +4°C° 0 mm 1 mps 699 mmHg 89%
07:00 +4°C° 0 mm 1 mps 699 mmHg 89%
08:00 +6°C° 0 mm 1 mps 700 mmHg 83%
09:00 +8°C° 0 mm 1 mps 700 mmHg 78%
10:00 +10°C° 0 mm 1 mps 701 mmHg 72%
11:00 +10°C° 0 mm 2 mps 701 mmHg 72%
12:00 +10°C° 0 mm 2 mps 700 mmHg 72%
13:00 +12°C° 0 mm 2 mps 700 mmHg 71%
14:00 +10°C° 0.3 mm 2 mps 700 mmHg 77%
15:00 +9°C° 0.3 mm 2 mps 699 mmHg 83%
16:00 +8°C° 0.3 mm 2 mps 699 mmHg 89%
17:00 +9°C° 0.8 mm 1 mps 699 mmHg 92%
18:00 +8°C° 0.8 mm 1 mps 699 mmHg 94%
19:00 +8°C° 0.8 mm 1 mps 699 mmHg 97%
20:00 +8°C° 0.1 mm 1 mps 699 mmHg 97%
21:00 +7°C° 0.1 mm 1 mps 699 mmHg 97%
22:00 +7°C° 0.1 mm 1 mps 699 mmHg 97%
23:00 +7°C° 0 mm 1 mps 699 mmHg 96%

Day after tomorrow, 9 March, Tuesday

Time Temperature Precipitation Wind Pressure Humidity
00:00 +7°C° 0 mm 1 mps 698 mmHg 96%
01:00 +7°C° 0 mm 1 mps 698 mmHg 95%
02:00 +7°C° 0 mm 1 mps 698 mmHg 94%
03:00 +7°C° 0 mm 1 mps 698 mmHg 94%
04:00 +6°C° 0 mm 1 mps 697 mmHg 93%
05:00 +6°C° 0 mm 1 mps 697 mmHg 93%
06:00 +6°C° 0 mm 1 mps 697 mmHg 93%
07:00 +6°C° 0 mm 1 mps 697 mmHg 92%
08:00 +7°C° 0 mm 2 mps 697 mmHg 87%
09:00 +8°C° 0 mm 2 mps 698 mmHg 82%
10:00 +10°C° 0 mm 3 mps 698 mmHg 76%
11:00 +10°C° 0.1 mm 3 mps 698 mmHg 74%
12:00 +11°C° 0.1 mm 3 mps 698 mmHg 73%
13:00 +11°C° 0.1 mm 4 mps 698 mmHg 71%
14:00 +10°C° 0.6 mm 3 mps 697 mmHg 74%
15:00 +10°C° 0.6 mm 3 mps 697 mmHg 78%
16:00 +9°C° 0.6 mm 3 mps 696 mmHg 82%
17:00 +9°C° 1.2 mm 2 mps 696 mmHg 86%
18:00 +8°C° 1.2 mm 2 mps 696 mmHg 90%
19:00 +8°C° 1.2 mm 1 mps 696 mmHg 94%
20:00 +8°C° 0.2 mm 1 mps 697 mmHg 95%
21:00 +7°C° 0.2 mm 1 mps 697 mmHg 95%
22:00 +7°C° 0.2 mm 1 mps 697 mmHg 96%
23:00 +6°C° 1.5 mm 2 mps 697 mmHg 96%

10 March, Wednesday

Time Temperature Precipitation Wind Pressure Humidity
00:00 +6°C° 1.5 mm 2 mps 697 mmHg 97%
01:00 +6°C° 1.5 mm 2 mps 697 mmHg 97%
02:00 +5°C° 1.2 mm 3 mps 697 mmHg 97%
03:00 +4°C° 1.2 mm 3 mps 696 mmHg 97%
04:00 +4°C° 1.2 mm 3 mps 696 mmHg 97%
05:00 +4°C° 0.5 mm 3 mps 697 mmHg 96%
06:00 +4°C° 0.5 mm 3 mps 697 mmHg 96%
07:00 +4°C° 0.5 mm 4 mps 697 mmHg 96%
08:00 +4°C° 0.3 mm 4 mps 698 mmHg 94%
09:00 +4°C° 0.3 mm 4 mps 698 mmHg 93%
10:00 +3°C° 0.3 mm 5 mps 699 mmHg 91%
11:00 +5°C° 0 mm 5 mps 699 mmHg 86%
12:00 +4°C° 0 mm 6 mps 699 mmHg 81%
13:00 +5°C° 0 mm 6 mps 700 mmHg 77%
14:00 +5°C° 0 mm 6 mps 700 mmHg 76%
15:00 +5°C° 0 mm 6 mps 700 mmHg 76%
16:00 +5°C° 0 mm 6 mps 700 mmHg 75%
17:00 +3°C° 0 mm 5 mps 700 mmHg 79%
18:00 +3°C° 0 mm 4 mps 700 mmHg 82%
19:00 +2°C° 0 mm 3 mps 701 mmHg 86%
20:00 +1°C° 0 mm 3 mps 701 mmHg 85%
21:00 +1°C° 0 mm 3 mps 702 mmHg 83%
22:00 0°C° 0 mm 3 mps 703 mmHg 82%
23:00 0°C° 0 mm 3 mps 703 mmHg 84%

11 March, Thursday

Time Temperature Precipitation Wind Pressure Humidity
00:00 0°C° 0 mm 3 mps 703 mmHg 85%
01:00 +1°C° 0 mm 2 mps 704 mmHg 86%
02:00 +1°C° 0 mm 2 mps 704 mmHg 86%
03:00 +1°C° 0 mm 2 mps 704 mmHg 86%
04:00 -1°C° 0 mm 2 mps 704 mmHg 86%
05:00 +1°C° 0 mm 2 mps 704 mmHg 83%
06:00 +2°C° 0 mm 1 mps 704 mmHg 80%
07:00 +2°C° 0 mm 1 mps 705 mmHg 77%
08:00 +5°C° 0 mm 1 mps 705 mmHg 67%
09:00 +7°C° 0 mm 1 mps 706 mmHg 57%
10:00 +10°C° 0 mm 1 mps 707 mmHg 46%
11:00 +11°C° 0 mm 1 mps 707 mmHg 43%
12:00 +12°C° 0 mm 1 mps 707 mmHg 41%
13:00 +13°C° 0 mm 1 mps 708 mmHg 38%
14:00 +13°C° 0 mm 1 mps 707 mmHg 41%
15:00 +13°C° 0 mm 1 mps 707 mmHg 44%
16:00 +12°C° 0 mm 1 mps 707 mmHg 47%
17:00 +10°C° 0 mm 1 mps 706 mmHg 55%
18:00 +8°C° 0 mm 1 mps 706 mmHg 63%
19:00 +4°C° 0 mm 2 mps 706 mmHg 72%
20:00 +4°C° 0 mm 2 mps 706 mmHg 75%
21:00 +3°C° 0 mm 2 mps 706 mmHg 78%
22:00 +2°C° 0 mm 2 mps 706 mmHg 81%
23:00 +2°C° 0 mm 2 mps 705 mmHg 82%

12 March, Friday

Time Temperature Precipitation Wind Pressure Humidity
00:00 +2°C° 0 mm 2 mps 705 mmHg 83%
01:00 +2°C° 0 mm 2 mps 704 mmHg 84%
02:00 +2°C° 0 mm 2 mps 704 mmHg 83%
03:00 +2°C° 0 mm 2 mps 703 mmHg 83%
04:00 +1°C° 0 mm 2 mps 703 mmHg 83%
05:00 +2°C° 0 mm 2 mps 703 mmHg 83%
06:00 +2°C° 0 mm 2 mps 703 mmHg 82%
07:00 +2°C° 0 mm 2 mps 703 mmHg 82%
08:00 +5°C° 0 mm 2 mps 704 mmHg 74%
09:00 +7°C° 0 mm 2 mps 704 mmHg 66%
10:00 +10°C° 0 mm 2 mps 705 mmHg 59%
11:00 +11°C° 0 mm 3 mps 705 mmHg 56%
12:00 +11°C° 0 mm 3 mps 705 mmHg 54%
13:00 +12°C° 0 mm 3 mps 705 mmHg 51%
14:00 +12°C° 0 mm 3 mps 704 mmHg 53%
15:00 +12°C° 0 mm 3 mps 704 mmHg 55%
16:00 +11°C° 0 mm 3 mps 703 mmHg 57%
17:00 +9°C° 0 mm 2 mps 702 mmHg 64%
18:00 +7°C° 0 mm 2 mps 702 mmHg 72%
19:00 +5°C° 0 mm 2 mps 701 mmHg 79%
20:00 +4°C° 0 mm 2 mps 701 mmHg 82%
21:00 +3°C° 0 mm 2 mps 701 mmHg 85%
22:00 +3°C° 0 mm 2 mps 701 mmHg 87%
23:00 +2°C° 0 mm 2 mps 701 mmHg 86%
Show more